Regional Weather Roundup
Issued by NWS

Home | Current Version | Previous Version | Text Only | Print | Product List | Glossary On
Versions: 1 2 3 4 5 6 7 8 9 10 11 12 13 14 15 16 17 18 19 20 21 22 23 24 25 26 27 28
000
ASCA42 TJSJ 091610
RWRPR
PUERTO RICO/U.S. VIRGIN ISLANDS HOURLY WEATHER ROUNDUP
NATIONAL WEATHER SERVICE SAN JUAN PR
1200 PM AST FRI DEC 09 2016

PRZ001>002-007>008-010-091700-
PUERTO RICO

CITY           SKY/WX    TMP DP  RH WIND       PRES   REMARKS
SAN JUAN LMM   PTSUNNY   84  73  70 E14       30.05F HX  91
AGUADILLA      MOSUNNY   82  73  74 E13G18    30.07F
CEIBA          SUNNY     84  75  74 NE9       30.06F HX  92
$$

VIZ001>002-091700-
U.S. VIRGIN ISLANDS

CITY           SKY/WX    TMP DP  RH WIND       PRES   REMARKS
CHARLOTTE AMA  MOSUNNY   84  73  70 NE7       30.03F HX  91
CHRISTIANSTED  MOSUNNY   88  73  62 E15G23    30.03F HX  96
$$

HOURLY WEATHER ROUNDUP FOR THE NEWS MEDIA

CITY           SKY/WX    TMP DP  RH WIND       PRES   REMARKS
ORLANDO        CLOUDY    53  42  66 N8        30.35R
NEW YORK       PTSUNNY   39  18  42 W20G26    30.13S WCI  29
NEWARK         MOSUNNY   38  19  46 W24G31    30.13S WCI  27
CHICAGO        FLURRIES  24  17  74 W12       30.53R WCI  13
HARTFORD       SUNNY     38  16  40 W13G25    29.97R WCI  30
BOSTON         MOSUNNY   35  13  40 NW24      29.96S WCI  23
DALLAS         PTSUNNY   34  16  47 E7        30.67S WCI  28
PHILADELPHIA   PTSUNNY   36  17  46 W20G26    30.24R WCI  25
LOS ANGELES    PTSUNNY   56  50  80 VRB3      30.26R
WASHINGTON DC  MOSUNNY   34  16  47 NW23G32   30.33S WCI  22



USA.gov is the U.S. government's official web portal to all federal, state and local government web resources and services.